Change the Weather History Date:

Monday, July 29, 2013

  Actual Average Record
Temperature  
Mean Temperature 88 °F -  
Max Temperature 95 °F 90 °F 95 °F (1970)
Min Temperature 82 °F 77 °F 71 °F (2003)
Cooling Degree Days 22    
Growing Degree Days 38 (Base 50)    
Moisture  
Dew Point 74 °F    
Average Humidity 69    
Maximum Humidity 82    
Minimum Humidity 43    
Precipitation  
Precipitation 0.01 in - - ()
Sea Level Pressure  
Sea Level Pressure 30.08 in    
Wind  
Wind Speed 8 mph (SSE)    
Max Wind Speed 20 mph    
Max Gust Speed 29 mph    
Visibility 10 miles    
Events Rain    
Averages and records for this station are not official NWS values.
T = Trace of Precipitation, MM = Missing Value Source: NWS Daily Summary

Daily Weather History Graph

Daily Weather History Graph

Search for Another Location

Airport or City:

Trip Planner

Search our weather history database for the weather conditions in past years. The results will help you decide how hot, cold, wet, or windy it might be!

Date:

Astronomy

Jul. 29, 2013 Rise Set
Actual Time 6:52 AM EDT 8:21 PM EDT
Civil Twilight 6:26 AM EDT 8:46 PM EDT
Nautical Twilight 5:56 AM EDT 9:17 PM EDT
Astronomical Twilight 5:24 AM EDT 9:48 PM EDT
Moon 12:25 AM EDT (7/29) 1:47 PM EDT (7/29)
Length of Visible Light 14h 20m
Length of Day
13h 29m
Waning Gibbous, 51% of the Moon is Illuminated
Jul 29
Waning Gibbous
Jul 29
Last Quarter
Aug 6
New
Aug 14
First Quarter
Aug 20
Full

Hourly Weather History & Observations

Time (EDT) Temp. Heat Index Dew Point Humidity Pressure Visibility Wind Dir Wind Speed Gust Speed Precip Events Conditions
12:53 AM 82.0 °F 89.4 °F 75.9 °F 82% 30.06 in 10.0 mi SE 11.5 mph - N/A   Clear
1:53 AM 82.0 °F 88.6 °F 75.0 °F 79% 30.04 in 10.0 mi SSE 11.5 mph - N/A   Mostly Cloudy
2:53 AM 82.0 °F 87.9 °F 73.9 °F 76% 30.03 in 10.0 mi SSE 9.2 mph - N/A   Mostly Cloudy
3:37 AM 82.0 °F 87.9 °F 73.9 °F 76% 30.02 in 10.0 mi South 8.1 mph - N/A   Scattered Clouds
3:53 AM 82.0 °F 87.9 °F 73.9 °F 76% 30.02 in 10.0 mi South 8.1 mph - N/A   Clear
4:29 AM 82.0 °F 87.9 °F 73.9 °F 76% 30.02 in 10.0 mi South 8.1 mph - N/A   Mostly Cloudy
4:45 AM 82.0 °F 88.6 °F 75.0 °F 79% 30.03 in 10.0 mi South 8.1 mph - N/A   Scattered Clouds
4:53 AM 82.0 °F 87.9 °F 73.9 °F 76% 30.03 in 10.0 mi South 6.9 mph - N/A   Partly Cloudy
5:53 AM 82.0 °F 87.9 °F 73.9 °F 76% 30.04 in 10.0 mi SW 3.5 mph - N/A   Clear
6:53 AM 82.0 °F 88.6 °F 75.0 °F 79% 30.06 in 10.0 mi WNW 3.5 mph - N/A   Clear
7:53 AM 82.9 °F 90.2 °F 75.0 °F 77% 30.08 in 10.0 mi Calm Calm - N/A   Clear
8:53 AM 86.0 °F 95.1 °F 75.0 °F 70% 30.10 in 10.0 mi Calm Calm - N/A   Clear
9:53 AM 86.0 °F 96.0 °F 75.9 °F 72% 30.11 in 10.0 mi East 5.8 mph - N/A   Clear
10:53 AM 86.0 °F 96.9 °F 77.0 °F 74% 30.12 in 10.0 mi East 6.9 mph - N/A   Clear
11:53 AM 88.0 °F 98.5 °F 75.9 °F 67% 30.12 in 10.0 mi ESE 5.8 mph - N/A   Clear
12:53 PM 89.1 °F 96.0 °F 72.0 °F 57% 30.11 in 10.0 mi East 5.8 mph - N/A   Clear
1:53 PM 91.0 °F 96.6 °F 70.0 °F 50% 30.10 in 10.0 mi ESE 4.6 mph - N/A   Clear
2:53 PM 91.9 °F 98.4 °F 71.1 °F 50% 30.09 in 10.0 mi East 4.6 mph - N/A   Clear
3:53 PM 93.0 °F 97.9 °F 69.1 °F 45% 30.07 in 10.0 mi East 3.5 mph - N/A   Clear
4:53 PM 93.9 °F 98.6 °F 68.0 °F 43% 30.06 in 10.0 mi Calm Calm - N/A   Clear
5:53 PM 93.0 °F 105.3 °F 75.9 °F 57% 30.07 in 10.0 mi East 3.5 mph - N/A   Clear
6:53 PM 93.0 °F 99.0 °F 70.0 °F 47% 30.07 in 10.0 mi Calm Calm - N/A   Clear
7:53 PM 82.0 °F 88.6 °F 75.0 °F 79% 30.07 in 4.0 mi SSW 19.6 mph 28.8 mph 0.00 in Rain Rain
8:53 PM 84.9 °F 94.1 °F 75.9 °F 74% 30.11 in 10.0 mi South 12.7 mph - 0.01 in   Partly Cloudy
9:53 PM 84.0 °F 92.6 °F 75.9 °F 76% 30.13 in 10.0 mi South 5.8 mph - N/A   Clear
10:53 PM 84.0 °F 91.9 °F 75.0 °F 74% 30.13 in 10.0 mi SSW 5.8 mph - N/A   Clear
11:53 PM 82.9 °F 89.4 °F 73.9 °F 74% 30.14 in 10.0 mi South 10.4 mph - N/A   Clear